TimeCDT,TemperatureF,Dew PointF,Humidity,Sea Level PressureIn,VisibilityMPH,Wind Direction,Wind SpeedMPH,Gust SpeedMPH,PrecipitationIn,Events,Conditions,WindDirDegrees,DateUTC
12:15 AM,75.2,66.2,73,29.71,10.0,SSW,10.4,-,N/A,,Overcast,210,2012-10-18 05:15:00
12:35 AM,75.2,66.2,73,29.71,10.0,SW,13.8,21.9,N/A,,Overcast,220,2012-10-18 05:35:00
12:55 AM,75.2,66.2,73,29.70,10.0,SSW,15.0,20.7,N/A,Thunderstorm,Overcast,210,2012-10-18 05:55:00
1:15 AM,75.2,66.2,73,29.72,10.0,SW,12.7,21.9,N/A,Thunderstorm,Overcast,230,2012-10-18 06:15:00
1:35 AM,75.2,66.2,73,29.73,10.0,WSW,5.8,-,N/A,Thunderstorm,Thunderstorm,250,2012-10-18 06:35:00
1:55 AM,73.4,66.2,78,29.74,10.0,NNE,3.5,-,0.03,Thunderstorm,Overcast,30,2012-10-18 06:55:00
2:15 AM,69.8,60.8,73,29.74,10.0,NE,4.6,-,N/A,,Overcast,50,2012-10-18 07:15:00
2:35 AM,69.8,62.6,78,29.74,10.0,NNE,8.1,-,N/A,,Overcast,20,2012-10-18 07:35:00
2:55 AM,69.8,62.6,78,29.73,10.0,Calm,Calm,-,N/A,,Scattered Clouds,0,2012-10-18 07:55:00
3:15 AM,68.0,62.6,83,29.72,8.0,Calm,Calm,-,N/A,,Clear,0,2012-10-18 08:15:00
3:35 AM,66.2,60.8,83,29.73,3.0,Calm,Calm,-,N/A,,Mostly Cloudy,0,2012-10-18 08:35:00
3:55 AM,68.0,60.8,78,29.75,10.0,North,6.9,-,N/A,,Mostly Cloudy,360,2012-10-18 08:55:00
4:15 AM,68.0,60.8,78,29.76,10.0,North,9.2,-,N/A,,Partly Cloudy,360,2012-10-18 09:15:00
4:35 AM,68.0,60.8,78,29.78,10.0,North,13.8,20.7,N/A,,Mostly Cloudy,360,2012-10-18 09:35:00
4:55 AM,66.2,57.2,73,29.79,10.0,North,11.5,19.6,N/A,,Overcast,360,2012-10-18 09:55:00
5:15 AM,66.2,53.6,64,29.81,10.0,North,12.7,18.4,N/A,,Overcast,10,2012-10-18 10:15:00
5:35 AM,64.4,51.8,64,29.82,10.0,North,11.5,-,N/A,,Mostly Cloudy,360,2012-10-18 10:35:00
5:56 AM,62.6,51.8,68,29.83,10.0,North,10.4,-,N/A,,Partly Cloudy,360,2012-10-18 10:56:00
6:35 AM,60.8,48.2,63,29.85,10.0,NNE,6.9,-,N/A,,Clear,20,2012-10-18 11:35:00
6:55 AM,60.8,46.4,59,29.85,10.0,NNE,6.9,-,N/A,,Clear,30,2012-10-18 11:55:00
7:15 AM,59.0,46.4,63,29.85,10.0,NE,6.9,-,N/A,,Clear,40,2012-10-18 12:15:00
7:35 AM,57.2,48.2,72,29.85,10.0,NE,3.5,-,N/A,,Clear,40,2012-10-18 12:35:00
7:55 AM,59.0,46.4,63,29.85,10.0,East,3.5,-,N/A,,Clear,80,2012-10-18 12:55:00
8:15 AM,60.8,48.2,63,29.86,10.0,Calm,Calm,-,N/A,,Clear,0,2012-10-18 13:15:00
8:35 AM,62.6,48.2,59,29.88,10.0,Calm,Calm,-,N/A,,Clear,0,2012-10-18 13:35:00
8:56 AM,62.6,48.2,59,29.89,10.0,NNE,3.5,-,N/A,,Clear,30,2012-10-18 13:56:00
9:15 AM,64.4,48.2,56,29.89,10.0,NNE,4.6,-,N/A,,Clear,30,2012-10-18 14:15:00
9:35 AM,64.4,46.4,52,29.89,10.0,NE,8.1,-,N/A,,Clear,50,2012-10-18 14:35:00
9:55 AM,66.2,46.4,49,29.90,10.0,NE,6.9,-,N/A,,Clear,40,2012-10-18 14:55:00
10:15 AM,66.2,44.6,46,29.90,10.0,NE,8.1,-,N/A,,Clear,50,2012-10-18 15:15:00
10:35 AM,68.0,44.6,43,29.91,10.0,NE,8.1,-,N/A,,Clear,40,2012-10-18 15:35:00
10:55 AM,69.8,44.6,40,29.91,10.0,NNE,4.6,-,N/A,,Clear,30,2012-10-18 15:55:00
11:15 AM,69.8,44.6,40,29.91,10.0,North,6.9,-,N/A,,Clear,360,2012-10-18 16:15:00
11:35 AM,69.8,44.6,40,29.91,10.0,North,5.8,-,N/A,,Clear,350,2012-10-18 16:35:00
11:55 AM,71.6,44.6,38,29.91,10.0,NE,5.8,-,N/A,,Clear,40,2012-10-18 16:55:00
12:15 PM,73.4,42.8,33,29.90,10.0,NNW,10.4,-,N/A,,Clear,330,2012-10-18 17:15:00
12:35 PM,73.4,42.8,33,29.90,10.0,North,6.9,-,N/A,,Clear,360,2012-10-18 17:35:00
12:55 PM,73.4,41.0,31,29.90,10.0,North,9.2,-,N/A,,Clear,10,2012-10-18 17:55:00
1:15 PM,73.4,35.6,25,29.90,10.0,North,9.2,18.4,N/A,,Clear,10,2012-10-18 18:15:00
1:35 PM,73.4,37.4,27,29.89,10.0,NNE,8.1,-,N/A,,Clear,20,2012-10-18 18:35:00
1:55 PM,75.2,39.2,27,29.88,10.0,North,10.4,16.1,N/A,,Clear,350,2012-10-18 18:55:00
2:15 PM,75.2,39.2,27,29.87,10.0,NNE,9.2,-,N/A,,Clear,30,2012-10-18 19:15:00
2:35 PM,75.2,39.2,27,29.87,10.0,North,11.5,-,N/A,,Clear,350,2012-10-18 19:35:00
2:55 PM,75.2,39.2,27,29.87,10.0,NNW,8.1,-,N/A,,Clear,340,2012-10-18 19:55:00
3:15 PM,75.2,35.6,24,29.87,10.0,North,13.8,-,N/A,,Clear,10,2012-10-18 20:15:00
3:35 PM,75.2,35.6,24,29.87,10.0,NNE,11.5,-,N/A,,Clear,30,2012-10-18 20:35:00
3:55 PM,75.2,35.6,24,29.87,10.0,North,6.9,-,N/A,,Clear,350,2012-10-18 20:55:00
4:15 PM,75.2,35.6,24,29.87,10.0,NNW,6.9,-,N/A,,Clear,340,2012-10-18 21:15:00
4:35 PM,75.2,35.6,24,29.87,10.0,NNW,5.8,-,N/A,,Clear,340,2012-10-18 21:35:00
4:55 PM,73.4,37.4,27,29.87,10.0,NW,6.9,-,N/A,,Clear,320,2012-10-18 21:55:00
5:15 PM,73.4,39.2,29,29.87,10.0,NNW,6.9,-,N/A,,Clear,330,2012-10-18 22:15:00
5:35 PM,71.6,37.4,29,29.88,10.0,NNW,4.6,-,N/A,,Clear,340,2012-10-18 22:35:00
5:55 PM,71.6,39.2,31,29.88,10.0,NNW,4.6,-,N/A,,Clear,340,2012-10-18 22:55:00
6:15 PM,69.8,41.0,35,29.88,10.0,Calm,Calm,-,N/A,,Clear,0,2012-10-18 23:15:00
6:35 PM,64.4,46.4,52,29.88,10.0,Calm,Calm,-,N/A,,Clear,0,2012-10-18 23:35:00
6:55 PM,64.4,46.4,52,29.88,10.0,Calm,Calm,-,N/A,,Clear,0,2012-10-18 23:55:00
7:35 PM,60.8,46.4,59,29.90,10.0,Calm,Calm,-,N/A,,Clear,0,2012-10-19 00:35:00
7:55 PM,57.2,46.4,67,29.91,10.0,Calm,Calm,-,N/A,,Clear,0,2012-10-19 00:55:00
8:15 PM,57.2,46.4,67,29.91,10.0,Calm,Calm,-,N/A,,Clear,0,2012-10-19 01:15:00
8:35 PM,55.4,46.4,72,29.92,10.0,Calm,Calm,-,N/A,,Clear,0,2012-10-19 01:35:00
8:55 PM,55.4,46.4,72,29.92,10.0,Calm,Calm,-,N/A,,Clear,0,2012-10-19 01:55:00
9:15 PM,53.6,46.4,77,29.92,10.0,Calm,Calm,-,N/A,,Clear,0,2012-10-19 02:15:00
9:35 PM,53.6,46.4,77,29.92,10.0,Calm,Calm,-,N/A,,Clear,0,2012-10-19 02:35:00
9:55 PM,53.6,46.4,77,29.92,10.0,South,3.5,-,N/A,,Clear,180,2012-10-19 02:55:00
10:15 PM,53.6,44.6,72,29.93,10.0,Calm,Calm,-,N/A,,Clear,0,2012-10-19 03:15:00
10:35 PM,53.6,44.6,72,29.93,10.0,Calm,Calm,-,N/A,,Clear,0,2012-10-19 03:35:00
10:55 PM,51.8,44.6,76,29.93,10.0,Calm,Calm,-,N/A,,Clear,0,2012-10-19 03:55:00
11:15 PM,51.8,44.6,76,29.93,10.0,South,3.5,-,N/A,,Clear,180,2012-10-19 04:15:00
11:35 PM,51.8,44.6,76,29.93,10.0,South,3.5,-,N/A,,Clear,180,2012-10-19 04:35:00
11:55 PM,51.8,44.6,76,29.93,10.0,Calm,Calm,-,N/A,,Clear,0,2012-10-19 04:55:00